Regional Weather Roundup
Issued by NWS

Home | Current Version | Previous Version | Text Only | Print | Product List | Glossary Off
Versions: 1 2 3 4 5 6 7 8 9 10 11 12 13 14 15 16 17 18 19 20 21 22 23 24 25 26 27 28 29 30 31 32 33 34 35 36 37 38 39 40 41 42 43 44 45 46 47 48 49 50

000
ASUS43 KLOT 300902
RWRIL

ILLINOIS REGIONAL WEATHER ROUNDUP
NATIONAL WEATHER SERVICE CHICAGO/ROMEOVILLE IL
400 AM CDT MON MAR 30 2015

NOTE: "FAIR" INDICATES FEW OR NO CLOUDS BELOW 12,000 FEET WITH NO
SIGNIFICANT WEATHER AND/OR OBSTRUCTIONS TO VISIBILITY.

* THESE STATIONS ARE NOT UNDER NWS QUALITY CONTROL. THEY ALSO MAY NOT
  REPORT WEATHER SUCH AS PRECIPITATION OR FOG.

ILZ001-002-007-009-015-016-024-301000-
NORTHWEST ILLINOIS

CITY           SKY/WX    TMP DP  RH WIND       PRES   REMARKS
MOLINE         CLEAR     37  28  70 W7        30.04F WCI  32
STERLING*      CLEAR     30  27  86 NW9       30.02S WCI  22
$$

ILZ003-004-008-010-011-017-018-301000-
NORTH CENTRAL ILLINOIS

CITY           SKY/WX    TMP DP  RH WIND       PRES   REMARKS
ROCKFORD       CLEAR     37  27  67 W8        30.00S WCI  31
FREEPORT*      CLEAR     35  28  75 W6        30.01S WCI  30
$$

ILZ005-006-012>014-019>023-301000-
NORTHEAST ILLINOIS

CITY           SKY/WX    TMP DP  RH WIND       PRES   REMARKS
CHICAGO-OHARE  FAIR      37  29  72 W10       29.96R WCI  30
CHICAGO-MIDWAY CLEAR     38  30  73 W7        29.97S WCI  33
AURORA         CLEAR     33  27  78 W5        29.99R WCI  29
WAUKEGAN       CLEAR     36  29  75 VRB5      29.94S WCI  32
DUPAGE AIRPORT CLEAR     37  28  70 W10       29.97S WCI  30
WHEELING       CLEAR     37  29  72 W3        29.98R
NORTHERLY ISL    N/A     41  31  68 W7          N/A
$$

LMZ740>746-301000-
SOUTHERN LAKE MICHIGAN

STATION/POSITION SKY/WX   TEMP    WIND        PRES    VSBY  WAVE
                          AIR SEA DIR/SP/G                  HT/PER
                          (F)     (DEG/KT/KT) (MB)    (MI)  (FT/S)
HARRISON CRIB              42     270/ 12/ 14   N/A
BURNHAM HARBOR             42     280/  6/ 10   N/A
CALUMET HARBOR             41     240/  4/  6 1013.5F
BURNS HARBOR               40     250/ 10/ 12 1015.2R
MICHIGAN CITY              38     220/ 12/ 13   N/A
$$

ILZ025>027-034>036-040-047-049-050-058-095>099-301000-
WEST-CENTRAL ILLINOIS

CITY           SKY/WX    TMP DP  RH WIND       PRES   REMARKS
QUINCY         CLEAR     42  30  62 W6        30.11S
$$

ILZ028>032-037-038-041>044-048-051>054-059>061-301000-
CENTRAL ILLINOIS

CITY           SKY/WX    TMP DP  RH WIND       PRES   REMARKS
DECATUR        CLEAR     43  31  62 NW9       30.06F
PEORIA         CLEAR     42  29  59 W5        30.06S
LINCOLN*       CLEAR     43  31  61 W3        30.07S
SPRINGFIELD    CLEAR     35  28  75 W6        30.09S WCI  30
TAYLORVILLE    NOT AVBL
$$

ILZ033-039-045-046-055>057-062-063-301000-
EAST-CENTRAL ILLINOIS

CITY           SKY/WX    TMP DP  RH WIND       PRES   REMARKS
CHAMPAIGN      CLEAR     35  31  85 W7        30.04S WCI  29
DANVILLE*      CLEAR     36  33  87 W8        29.99F WCI  30
MATTOON        CLEAR     38  32  79 W12       30.04F WCI  30
$$

ILZ079-100>102-301000-
SOUTHWEST ILLINOIS

CITY           SKY/WX    TMP DP  RH WIND       PRES   REMARKS
CAHOKIA*       CLEAR     45  38  76 W7        30.12R
SPARTA*        CLEAR     44  38  81 W3        30.11S
$$

ILZ064>066-069>071-074>076-080>082-084>086-088>090-092>094-301000-
SOUTH-CENTRAL ILLINOIS

CITY           SKY/WX    TMP DP  RH WIND       PRES   REMARKS
CARBONDALE     CLEAR     47  39  74 NW8       30.09S
MT. VERNON     CLEAR     46  37  71 CALM      30.09S
SALEM*         CLEAR     43  38  80 NW6       30.09F
$$

ILZ067-068-072-073-078-083-087-091-301000-
SOUTHEAST ILLINOIS

CITY           SKY/WX    TMP DP  RH WIND       PRES   REMARKS
LAWRENCEVILLE  CLEAR     44  38  79 NW10      30.04F
ROBINSON*      CLEAR     41  36  83 NW9       30.05F
$$

ABBREVIATIONS USED IN REMARKS
   TC - TEMPERATURE IN CELSIUS
  WCI - WIND CHILL INDEX
   HX - HEAT INDEX
  VSB - VISIBILITY
$$




USA.gov is the U.S. government's official web portal to all federal, state and local government web resources and services.